Location: Unspecified
(0.0000°N, 0.0000°E)
Time: 18:34:36
(UTC+00:00)

A-11 Canister half - All Passes

Search period start: 01 September 2014 00:00
Search period end: 11 September 2014 00:00
Orbit: 1526 x 1684 km, 47.3° (Epoch: 31 August)

Date Brightness Start Highest point End Pass type
(mag) Time Alt. Az. Time Alt. Az. Time Alt. Az.
01 Sep - 07:38:51 10° N 07:46:27 24° NE 07:53:54 10° E daylight
01 Sep - 09:41:34 10° NW 09:51:38 75° SW 10:01:26 10° SSE daylight
01 Sep - 11:52:41 10° WSW 11:57:00 14° SW 12:01:18 10° SSW daylight
01 Sep - 20:29:01 10° SSW 20:37:56 50° SE 20:47:00 10° ENE visible
01 Sep - 22:34:33 10° WSW 22:42:46 34° NW 22:51:14 10° NNE visible
02 Sep - 07:17:35 10° N 07:24:51 22° NE 07:32:01 10° E daylight
02 Sep - 09:19:59 10° NW 09:30:05 79° SW 09:39:57 10° SE daylight
02 Sep - 11:30:23 10° WSW 11:35:24 15° SW 11:40:24 10° SSW daylight
02 Sep - 20:07:37 10° SSW 20:16:25 46° SE 20:25:20 10° ENE visible
02 Sep - 22:12:51 10° WSW 22:21:14 37° NW 22:29:51 10° NNE visible
03 Sep - 06:56:20 10° N 07:03:16 20° NE 07:10:05 10° E daylight
03 Sep - 08:58:24 10° NW 09:08:33 84° SW 09:18:27 10° SE daylight
03 Sep - 11:08:11 10° W 11:13:49 16° SW 11:19:23 10° S daylight
03 Sep - 19:46:15 10° SSW 19:54:54 43° SE 20:03:40 10° ENE visible
03 Sep - 21:51:11 10° WSW 21:59:42 40° NW 22:08:27 10° NNE visible
04 Sep - 06:35:07 10° N 06:41:39 19° NE 06:48:07 10° E daylight
04 Sep - 08:36:50 10° NW 08:47:00 89° SW 08:56:56 10° SE daylight
04 Sep - 10:46:05 10° W 10:52:13 18° SW 10:58:18 10° S daylight
04 Sep - 19:24:52 10° SSW 19:33:23 40° SE 19:41:58 10° ENE visible
04 Sep - 21:29:32 10° WSW 21:38:10 43° NW 21:47:03 10° NNE visible
05 Sep - 06:13:57 10° N 06:20:03 17° NE 06:26:05 10° E daylight
05 Sep - 08:15:17 10° NW 08:25:27 86° NE 08:35:25 10° SE daylight
05 Sep - 10:24:02 10° W 10:30:38 20° SW 10:37:09 10° S daylight
05 Sep - 19:03:31 10° SSW 19:11:52 37° SE 19:20:16 10° ENE visible
05 Sep - 21:07:53 10° WSW 21:16:39 46° NW 21:25:37 10° NNE visible
06 Sep - 05:52:50 10° N 05:58:26 16° NE 06:03:59 10° E daylight
06 Sep - 07:53:45 10° NW 08:03:55 81° NE 08:13:52 10° SE daylight
06 Sep - 10:02:03 10° W 10:09:03 21° SW 10:15:59 10° S daylight
06 Sep - 18:42:10 10° SSW 18:50:20 34° SE 18:58:33 10° ENE visible
06 Sep - 20:46:16 10° WSW 20:55:07 49° NW 21:04:12 10° NNE visible
07 Sep - 05:31:48 10° NNE 05:36:49 15° NE 05:41:48 10° ENE visible
07 Sep - 07:32:13 10° NW 07:42:22 76° NE 07:52:19 10° SE daylight
07 Sep - 09:40:06 10° W 09:47:28 23° SW 09:54:45 10° S daylight
07 Sep - 18:20:50 10° S 18:28:49 32° SE 18:36:49 10° ENE visible
07 Sep - 20:24:39 10° SW 20:33:36 53° NW 20:42:45 10° NNE visible
08 Sep - 05:10:51 10° NNE 05:15:11 13° NE 05:19:30 10° ENE visible
08 Sep - 07:10:42 10° NNW 07:20:49 72° NE 07:30:46 10° SE daylight
08 Sep - 09:18:11 10° W 09:25:53 25° SW 09:33:31 10° S daylight
08 Sep - 17:59:31 10° S 18:07:17 30° SE 18:15:03 10° ENE daylight
08 Sep - 20:03:04 10° SW 20:12:05 56° NW 20:21:19 10° NNE visible
09 Sep - 04:50:05 10° NNE 04:53:33 12° NE 04:57:01 10° ENE visible
09 Sep - 06:49:12 10° NNW 06:59:16 67° NE 07:09:11 10° SE daylight
09 Sep - 08:56:19 10° WNW 09:04:19 27° SW 09:12:14 10° S daylight
09 Sep - 17:38:14 10° S 17:45:45 27° SE 17:53:16 10° ENE daylight
09 Sep - 19:41:29 10° SW 19:50:35 60° NW 19:59:51 10° NNE visible
10 Sep - 04:29:39 10° NNE 04:31:55 11° NE 04:34:10 10° ENE visible
10 Sep - 06:27:42 10° NNW 06:37:43 63° NE 06:47:35 10° SE daylight
10 Sep - 08:34:28 10° WNW 08:42:44 29° SW 08:50:56 10° S daylight
10 Sep - 17:16:57 10° S 17:24:13 25° SE 17:31:27 10° E daylight
10 Sep - 19:19:55 10° SW 19:29:04 65° NW 19:38:23 10° NNE visible
10 Sep - 21:33:28 10° NW 21:34:39 10° NW 21:35:50 10° NW visible
